When you browse on this site, cookies collect data to enhance your experience and personalize the content and advertising you see.
Visit our Privacy Policy to learn more. By continuing to use the site, you agree to this use of cookies and data.
  • In Hungary
  • List of Countries
  • For 7 days
  • Water Temperature
  • Weather Map
  • News
  • Weather Widgets
  • user-avatar
    Login

    Hourly Weather Zoersel

    Today, 6 December, Friday

    Time Temperature Precipitation Wind Pressure Humidity
    00:00 0°C° 0 mm 7 mps 760 mmHg 86%
    01:00 +2°C° 0.2 mm 7 mps 759 mmHg 86%
    02:00 +2°C° 0.2 mm 7 mps 759 mmHg 86%
    03:00 +1°C° 0.2 mm 8 mps 758 mmHg 86%
    04:00 +1°C° 0.3 mm 8 mps 758 mmHg 87%
    05:00 +1°C° 0.3 mm 8 mps 758 mmHg 88%
    06:00 +2°C° 0.3 mm 8 mps 758 mmHg 89%
    07:00 +2°C° 0.9 mm 8 mps 757 mmHg 90%
    08:00 +2°C° 0.9 mm 8 mps 757 mmHg 90%
    09:00 +2°C° 0.9 mm 8 mps 756 mmHg 91%
    10:00 +2°C° 0.8 mm 8 mps 756 mmHg 91%
    11:00 +2°C° 0.8 mm 9 mps 755 mmHg 90%
    12:00 +3°C° 0.8 mm 9 mps 755 mmHg 90%
    13:00 +3°C° 0.7 mm 9 mps 754 mmHg 90%
    14:00 +5°C° 0.7 mm 9 mps 753 mmHg 91%
    15:00 +5°C° 0.7 mm 8 mps 752 mmHg 91%
    16:00 +5°C° 0.6 mm 9 mps 752 mmHg 90%
    17:00 +6°C° 0.6 mm 9 mps 752 mmHg 89%
    18:00 +6°C° 0.6 mm 9 mps 751 mmHg 89%
    19:00 +7°C° 0.3 mm 9 mps 751 mmHg 86%
    20:00 +7°C° 0.3 mm 8 mps 751 mmHg 84%
    21:00 +9°C° 0.3 mm 8 mps 751 mmHg 81%
    22:00 +7°C° 0.3 mm 8 mps 752 mmHg 82%
    23:00 +7°C° 0.3 mm 8 mps 752 mmHg 82%

    Tomorrow, 7 December, Saturday

    Time Temperature Precipitation Wind Pressure Humidity
    00:00 +8°C° 0.3 mm 7 mps 753 mmHg 82%
    01:00 +8°C° 0 mm 7 mps 754 mmHg 83%
    02:00 +6°C° 0 mm 7 mps 754 mmHg 84%
    03:00 +7°C° 0 mm 6 mps 755 mmHg 85%
    04:00 +7°C° 0 mm 6 mps 755 mmHg 87%
    05:00 +7°C° 0 mm 5 mps 756 mmHg 88%
    06:00 +6°C° 0 mm 5 mps 756 mmHg 89%
    07:00 +7°C° 0 mm 5 mps 757 mmHg 88%
    08:00 +7°C° 0 mm 5 mps 757 mmHg 87%
    09:00 +7°C° 0 mm 5 mps 758 mmHg 87%
    10:00 +7°C° 0 mm 5 mps 758 mmHg 85%
    11:00 +8°C° 0 mm 5 mps 758 mmHg 83%
    12:00 +8°C° 0 mm 5 mps 758 mmHg 80%
    13:00 +8°C° 0 mm 5 mps 758 mmHg 81%
    14:00 +8°C° 0 mm 5 mps 758 mmHg 81%
    15:00 +8°C° 0 mm 4 mps 758 mmHg 81%
    16:00 +7°C° 0 mm 4 mps 758 mmHg 83%
    17:00 +7°C° 0 mm 4 mps 758 mmHg 85%
    18:00 +6°C° 0 mm 4 mps 758 mmHg 87%
    19:00 +6°C° 0 mm 4 mps 758 mmHg 88%
    20:00 +6°C° 0 mm 5 mps 758 mmHg 89%
    21:00 +6°C° 0 mm 5 mps 758 mmHg 90%
    22:00 +6°C° 0 mm 5 mps 757 mmHg 89%
    23:00 +5°C° 0 mm 6 mps 757 mmHg 88%

    Day after tomorrow, 8 December, Sunday

    Time Temperature Precipitation Wind Pressure Humidity
    00:00 +5°C° 0 mm 6 mps 756 mmHg 87%
    01:00 +5°C° 0 mm 7 mps 755 mmHg 86%
    02:00 +5°C° 0 mm 7 mps 754 mmHg 85%
    03:00 +5°C° 0 mm 7 mps 753 mmHg 84%
    04:00 +5°C° 0.5 mm 8 mps 752 mmHg 85%
    05:00 +6°C° 0.5 mm 9 mps 751 mmHg 86%
    06:00 +6°C° 0.5 mm 9 mps 751 mmHg 88%
    07:00 +7°C° 0.2 mm 9 mps 750 mmHg 87%
    08:00 +8°C° 0.2 mm 9 mps 750 mmHg 87%
    09:00 +8°C° 0.2 mm 9 mps 749 mmHg 87%
    10:00 +8°C° 0.1 mm 9 mps 750 mmHg 82%
    11:00 +10°C° 0.1 mm 8 mps 750 mmHg 76%
    12:00 +10°C° 0.1 mm 8 mps 750 mmHg 71%
    13:00 +9°C° 0 mm 7 mps 750 mmHg 71%
    14:00 +9°C° 0 mm 6 mps 750 mmHg 71%
    15:00 +8°C° 0 mm 6 mps 749 mmHg 71%
    16:00 +8°C° 0.7 mm 7 mps 749 mmHg 74%
    17:00 +8°C° 0.7 mm 7 mps 749 mmHg 76%
    18:00 +6°C° 0.7 mm 8 mps 748 mmHg 79%
    19:00 +6°C° 0.1 mm 8 mps 748 mmHg 78%
    20:00 +6°C° 0.1 mm 8 mps 748 mmHg 77%
    21:00 +6°C° 0.1 mm 7 mps 748 mmHg 76%
    22:00 +6°C° 0 mm 8 mps 747 mmHg 75%
    23:00 +5°C° 0 mm 8 mps 746 mmHg 74%

    9 December, Monday

    Time Temperature Precipitation Wind Pressure Humidity
    00:00 +5°C° 0 mm 8 mps 746 mmHg 73%
    01:00 +5°C° 0.7 mm 8 mps 745 mmHg 76%
    02:00 +5°C° 0.7 mm 9 mps 744 mmHg 79%
    03:00 +5°C° 0.7 mm 9 mps 742 mmHg 82%
    04:00 +5°C° 0.3 mm 9 mps 742 mmHg 82%
    05:00 +5°C° 0.3 mm 9 mps 741 mmHg 81%
    06:00 +5°C° 0.3 mm 9 mps 741 mmHg 81%
    07:00 +5°C° 0.1 mm 9 mps 741 mmHg 77%
    08:00 +5°C° 0.1 mm 8 mps 742 mmHg 73%
    09:00 +5°C° 0.1 mm 8 mps 742 mmHg 69%
    10:00 +5°C° 0.2 mm 7 mps 743 mmHg 74%
    11:00 +5°C° 0.2 mm 7 mps 743 mmHg 78%
    12:00 +5°C° 0.2 mm 7 mps 743 mmHg 83%
    13:00 +5°C° 0.3 mm 6 mps 744 mmHg 81%
    14:00 +5°C° 0.3 mm 6 mps 745 mmHg 80%
    15:00 +5°C° 0.3 mm 6 mps 746 mmHg 78%
    16:00 +5°C° 0.1 mm 7 mps 747 mmHg 75%
    17:00 +5°C° 0.1 mm 8 mps 749 mmHg 73%
    18:00 +5°C° 0.1 mm 9 mps 750 mmHg 71%
    19:00 +5°C° 0 mm 9 mps 752 mmHg 69%
    20:00 +4°C° 0 mm 8 mps 754 mmHg 67%
    21:00 +4°C° 0 mm 8 mps 755 mmHg 65%
    22:00 +3°C° 0 mm 7 mps 756 mmHg 66%
    23:00 +3°C° 0 mm 7 mps 757 mmHg 67%

    10 December, Tuesday

    Time Temperature Precipitation Wind Pressure Humidity
    00:00 +3°C° 0 mm 6 mps 759 mmHg 68%
    01:00 +3°C° 0 mm 6 mps 760 mmHg 70%
    02:00 +3°C° 0 mm 5 mps 760 mmHg 71%
    03:00 +4°C° 0 mm 4 mps 761 mmHg 72%
    04:00 +3°C° 0 mm 4 mps 762 mmHg 74%
    05:00 +3°C° 0 mm 3 mps 763 mmHg 75%
    06:00 +4°C° 0 mm 2 mps 764 mmHg 77%
    07:00 +4°C° 0 mm 2 mps 764 mmHg 78%
    08:00 +4°C° 0 mm 2 mps 764 mmHg 78%
    09:00 +4°C° 0 mm 2 mps 764 mmHg 79%
    10:00 +4°C° 0 mm 3 mps 764 mmHg 77%
    11:00 +4°C° 0 mm 4 mps 764 mmHg 74%
    12:00 +5°C° 0 mm 5 mps 764 mmHg 72%
    13:00 +3°C° 0 mm 5 mps 763 mmHg 70%
    14:00 +3°C° 0 mm 5 mps 762 mmHg 69%
    15:00 +3°C° 0 mm 6 mps 761 mmHg 67%
    16:00 +3°C° 0 mm 6 mps 760 mmHg 69%
    17:00 +3°C° 0 mm 7 mps 759 mmHg 71%
    18:00 +2°C° 0 mm 8 mps 758 mmHg 73%
    19:00 +2°C° 0.5 mm 8 mps 757 mmHg 76%
    20:00 +3°C° 0.5 mm 9 mps 756 mmHg 79%
    21:00 +3°C° 0.5 mm 9 mps 755 mmHg 82%
    22:00 +5°C° 0.5 mm 9 mps 754 mmHg 84%
    23:00 +5°C° 0.5 mm 9 mps 754 mmHg 86%

    11 December, Wednesday

    Time Temperature Precipitation Wind Pressure Humidity
    00:00 +6°C° 0.5 mm 9 mps 754 mmHg 87%
    01:00 +5°C° 0.2 mm 8 mps 754 mmHg 85%
    02:00 +5°C° 0.2 mm 6 mps 754 mmHg 83%
    03:00 +5°C° 0.2 mm 5 mps 754 mmHg 81%
    04:00 +5°C° 0 mm 4 mps 754 mmHg 81%
    05:00 +4°C° 0 mm 4 mps 754 mmHg 80%
    06:00 +4°C° 0 mm 4 mps 754 mmHg 80%
    07:00 +3°C° 0 mm 5 mps 754 mmHg 79%
    08:00 +3°C° 0 mm 5 mps 754 mmHg 79%
    09:00 +3°C° 0 mm 5 mps 754 mmHg 78%
    10:00 +4°C° 0 mm 6 mps 754 mmHg 76%
    11:00 +5°C° 0 mm 7 mps 753 mmHg 74%
    12:00 +5°C° 0 mm 8 mps 752 mmHg 71%
    13:00 +5°C° 0.4 mm 9 mps 752 mmHg 74%
    14:00 +5°C° 0.4 mm 10 mps 751 mmHg 77%
    15:00 +3°C° 0.4 mm 11 mps 750 mmHg 79%
    16:00 +3°C° 0.9 mm 10 mps 750 mmHg 80%
    17:00 +3°C° 0.9 mm 9 mps 749 mmHg 80%
    18:00 +4°C° 0.9 mm 8 mps 749 mmHg 80%
    19:00 +4°C° 1 mm 8 mps 748 mmHg 83%
    20:00 +2°C° 1 mm 8 mps 748 mmHg 86%
    21:00 +2°C° 1 mm 8 mps 747 mmHg 89%
    22:00 +2°C° 0.9 mm 8 mps 747 mmHg 84%
    23:00 +2°C° 0.9 mm 8 mps 747 mmHg 80%
    Show more